User: anonymous
Location: Unspecified
(0.0000°N, 0.0000°E)
Time: 12:55:32
(UTC+00:00)
Language:

AEHF 1 (USA 214) - Orbit

View from above orbital plane
View from above orbital plane
View from above satellite
View from above satellite

Ground track
Ground track

The orbit data is extracted from the following two-line orbital elements,

1 36868U 10039A   14108.36039245 0.00000000  00000-0  00000-0 0    03
2 36868   2.4755 268.0528 0003887 147.7699 212.2696  1.00270000    04
Epoch (UTC): 18 April 2014 08:38:57
Eccentricity: 0.0003887
inclination: 2.4755°
perigee height: 35770 km
apogee height: 35803 km
right ascension of ascending node: 268.0528°
argument of perigee: 147.7699°
revolutions per day: 1.00270000
mean anomaly at epoch: 212.2696°
orbit number at epoch: 0

The dashed part of the orbit path shows where the satellite is in the earth's shadow,  

DLR